Change the Weather History Date:

Thursday, January 10, 2013

  Actual Average Record
Temperature  
Mean Temperature 27 °F -  
Max Temperature 33 °F 8 °F 52 °F (1990)
Min Temperature 19 °F -10 °F -40 °F (1989)
Degree Days  
Heating Degree Days 38    
Moisture  
Dew Point 25 °F    
Average Humidity 88    
Maximum Humidity 100    
Minimum Humidity 75    
Precipitation  
Precipitation 0.00 in - - ()
Sea Level Pressure  
Sea Level Pressure 29.59 in    
Wind  
Wind Speed 13 mph (SE)    
Max Wind Speed 28 mph    
Max Gust Speed 36 mph    
Visibility 10 miles    
Events      
Averages and records for this station are not official NWS values.
T = Trace of Precipitation, MM = Missing Value Source: NWS Daily Summary

Daily Weather History Graph

Daily Weather History Graph

Search for Another Location

Airport or City:

Trip Planner

Search our weather history database for the weather conditions in past years. The results will help you decide how hot, cold, wet, or windy it might be!

Date:

Astronomy

Jan. 10, 2013 Rise Set
Actual Time 8:29 AM CST 5:06 PM CST
Civil Twilight 7:53 AM CST 5:42 PM CST
Nautical Twilight 7:14 AM CST 6:21 PM CST
Astronomical Twilight 6:36 AM CST 6:59 PM CST
Moon 7:10 AM CST (1/10) 4:17 PM CST (1/10)
Length of Visible Light 9h 49m
Length of Day
8h 37m
Waning Crescent, 2% of the Moon is Illuminated
Jan 10
Waning Crescent
Jan 11
New
Jan 18
First Quarter
Jan 26
Full
Feb 3
Last Quarter

Hourly Weather History & Observations

Time (CST) Temp. Windchill Dew Point Humidity Pressure Visibility Wind Dir Wind Speed Gust Speed Precip Events Conditions
12:15 AM 28.4 °F 19.1 °F 24.8 °F 86% 29.79 in 10.0 mi SE 10.4 mph - N/A   Clear
12:35 AM 28.4 °F 18.5 °F 24.8 °F 86% 29.80 in 10.0 mi SE 11.5 mph - N/A   Clear
12:55 AM 28.4 °F 20.4 °F 24.8 °F 86% 29.79 in 10.0 mi SE 8.1 mph - N/A   Clear
2:35 AM 28.4 °F 19.1 °F 24.8 °F 86% 29.73 in 10.0 mi SE 10.4 mph - N/A   Clear
2:55 AM 30.2 °F 19.3 °F 26.6 °F 86% 29.73 in 10.0 mi SSE 15.0 mph 19.6 mph N/A   Clear
3:15 AM 30.2 °F 18.9 °F 26.6 °F 86% 29.73 in 10.0 mi SSE 16.1 mph - N/A   Clear
3:35 AM 32.0 °F 21.6 °F 24.8 °F 75% 29.71 in 10.0 mi SSE 15.0 mph - N/A   Clear
3:55 AM 30.2 °F 20.2 °F 24.8 °F 80% 29.70 in 10.0 mi SSE 12.7 mph - N/A   Clear
4:15 AM 28.4 °F 18.5 °F 24.8 °F 86% 29.68 in 10.0 mi SSE 11.5 mph - N/A   Clear
4:35 AM 28.4 °F 18.5 °F 24.8 °F 86% 29.67 in 10.0 mi SSE 11.5 mph - N/A   Clear
4:55 AM 28.4 °F 19.1 °F 24.8 °F 86% 29.67 in 10.0 mi SSE 10.4 mph - N/A   Clear
5:15 AM 28.4 °F 17.0 °F 23.0 °F 80% 29.66 in 10.0 mi SSE 15.0 mph 19.6 mph N/A   Clear
5:35 AM 28.4 °F 18.0 °F 24.8 °F 86% 29.65 in 10.0 mi SSE 12.7 mph - N/A   Clear
5:55 AM 28.4 °F 18.5 °F 24.8 °F 86% 29.63 in 10.0 mi SSE 11.5 mph - N/A   Clear
6:15 AM 28.4 °F 19.1 °F 24.8 °F 86% 29.63 in 10.0 mi South 10.4 mph 17.3 mph N/A   Clear
6:35 AM 26.6 °F 15.7 °F 23.0 °F 86% 29.62 in 10.0 mi South 12.7 mph 16.1 mph N/A   Clear
6:55 AM 26.6 °F 15.7 °F 24.8 °F 93% 29.62 in 10.0 mi South 12.7 mph 18.4 mph N/A   Clear
7:35 AM 28.4 °F 19.1 °F 24.8 °F 86% 29.61 in 10.0 mi South 10.4 mph - N/A   Clear
7:55 AM 28.4 °F 18.5 °F 24.8 °F 86% 29.61 in 10.0 mi South 11.5 mph - N/A   Clear
8:15 AM 28.4 °F 19.1 °F 24.8 °F 86% 29.60 in 10.0 mi South 10.4 mph - N/A   Clear
8:35 AM 28.4 °F 18.5 °F 24.8 °F 86% 29.60 in 10.0 mi South 11.5 mph - N/A   Clear
9:15 AM 28.4 °F 19.7 °F 26.6 °F 93% 29.60 in 10.0 mi South 9.2 mph - N/A   Clear
9:35 AM 28.4 °F 19.7 °F 26.6 °F 93% 29.60 in 10.0 mi SSW 9.2 mph - N/A   Clear
9:55 AM 28.4 °F 19.7 °F 26.6 °F 93% 29.61 in 10.0 mi SSW 9.2 mph - N/A   Clear
10:15 AM 30.2 °F 23.4 °F 26.6 °F 86% 29.60 in 10.0 mi SSW 6.9 mph - N/A   Clear
10:35 AM 30.2 °F 23.4 °F 26.6 °F 86% 29.60 in 10.0 mi South 6.9 mph - N/A   Clear
10:55 AM 32.0 °F 25.6 °F 26.6 °F 80% 29.60 in 10.0 mi SSW 6.9 mph - N/A   Clear
11:15 AM 32.0 °F 24.2 °F 26.6 °F 80% 29.61 in 10.0 mi SSW 9.2 mph - N/A   Clear
11:35 AM 32.0 °F 23.6 °F 28.4 °F 87% 29.60 in 10.0 mi South 10.4 mph - N/A   Clear
12:15 PM 32.0 °F 24.8 °F 28.4 °F 87% 29.59 in 10.0 mi South 8.1 mph - N/A   Clear
12:35 PM 32.0 °F 24.8 °F 28.4 °F 87% 29.58 in 10.0 mi South 8.1 mph - N/A   Clear
12:55 PM 32.0 °F 25.6 °F 28.4 °F 87% 29.56 in 10.0 mi South 6.9 mph - N/A   Clear
1:15 PM 32.0 °F 26.4 °F 28.4 °F 87% 29.55 in 10.0 mi South 5.8 mph - N/A   Clear
1:35 PM 33.8 °F 27.7 °F 28.4 °F 81% 29.55 in 10.0 mi South 6.9 mph - N/A   Clear
1:55 PM 32.0 °F 26.4 °F 28.4 °F 87% 29.54 in 10.0 mi SSE 5.8 mph - N/A   Clear
2:15 PM 32.0 °F 25.6 °F 28.4 °F 87% 29.53 in 10.0 mi SSE 6.9 mph - N/A   Clear
2:35 PM 33.8 °F 27.0 °F 28.4 °F 81% 29.53 in 10.0 mi SSE 8.1 mph - N/A   Clear
2:55 PM 33.8 °F 27.7 °F 28.4 °F 81% 29.54 in 10.0 mi SE 6.9 mph - N/A   Clear
3:15 PM 32.0 °F 25.6 °F 28.4 °F 87% 29.54 in 10.0 mi SE 6.9 mph - N/A   Clear
3:35 PM 32.0 °F 26.4 °F 28.4 °F 87% 29.55 in 10.0 mi SE 5.8 mph - N/A   Clear
3:55 PM 33.8 °F 30.8 °F 28.4 °F 81% 29.55 in 10.0 mi SSE 3.5 mph - N/A   Clear
4:15 PM 30.2 °F 25.4 °F 26.6 °F 86% 29.55 in 10.0 mi ESE 4.6 mph - N/A   Clear
4:35 PM 28.4 °F 20.4 °F 26.6 °F 93% 29.55 in 10.0 mi ENE 8.1 mph - N/A   Clear
4:55 PM 28.4 °F 19.7 °F 26.6 °F 93% 29.54 in 10.0 mi NE 9.2 mph - N/A   Clear
5:15 PM 28.4 °F 19.7 °F 26.6 °F 93% 29.54 in 10.0 mi ENE 9.2 mph - N/A   Clear
5:35 PM 28.4 °F 18.0 °F 26.6 °F 93% 29.54 in 10.0 mi ENE 12.7 mph - N/A   Clear
5:55 PM 28.4 °F 16.6 °F 26.6 °F 93% 29.54 in 10.0 mi ENE 16.1 mph - N/A   Clear
6:15 PM 28.4 °F 15.8 °F 26.6 °F 93% 29.54 in 10.0 mi ENE 18.4 mph - N/A   Clear
6:35 PM 28.4 °F 14.7 °F 24.8 °F 86% 29.55 in 10.0 mi ENE 21.9 mph - N/A   Clear
6:55 PM 24.8 °F 8.7 °F 23.0 °F 93% 29.54 in 10.0 mi NE 26.5 mph 32.2 mph N/A   Clear
7:15 PM 23.0 °F 6.3 °F 21.2 °F 93% 29.53 in 10.0 mi ENE 26.5 mph - N/A   Clear
7:35 PM 23.0 °F 6.6 °F 21.2 °F 93% 29.52 in 10.0 mi ENE 25.3 mph 32.2 mph N/A   Clear
7:55 PM 23.0 °F 6.0 °F 21.2 °F 93% 29.51 in 10.0 mi ENE 27.6 mph 32.2 mph N/A   Clear
8:15 PM 23.0 °F 6.0 °F 21.2 °F 93% 29.51 in 10.0 mi ENE 27.6 mph 32.2 mph N/A   Clear
8:35 PM 23.0 °F 7.2 °F 23.0 °F 100% 29.51 in 10.0 mi ENE 23.0 mph 29.9 mph N/A   Clear
8:55 PM 23.0 °F 6.3 °F 23.0 °F 100% 29.50 in 10.0 mi ENE 26.5 mph 35.7 mph N/A   Clear
9:15 PM 23.0 °F 6.3 °F 21.2 °F 93% 29.51 in 8.0 mi NE 26.5 mph 32.2 mph N/A   Clear
9:35 PM 23.0 °F 6.6 °F 21.2 °F 93% 29.51 in 8.0 mi ENE 25.3 mph 31.1 mph N/A   Partly Cloudy
9:55 PM 23.0 °F 8.0 °F 21.2 °F 93% 29.53 in 9.0 mi NE 20.7 mph 28.8 mph N/A   Scattered Clouds
10:15 PM 23.0 °F 7.2 °F 21.2 °F 93% 29.52 in 9.0 mi NE 23.0 mph 31.1 mph N/A   Overcast
10:35 PM 23.0 °F 6.9 °F 21.2 °F 93% 29.53 in 9.0 mi NE 24.2 mph 27.6 mph N/A   Overcast
10:55 PM 23.0 °F 6.3 °F 21.2 °F 93% 29.52 in 9.0 mi NE 26.5 mph 34.5 mph N/A   Overcast
11:15 PM 23.0 °F 6.6 °F 19.4 °F 86% 29.53 in 10.0 mi NE 25.3 mph 33.4 mph N/A   Overcast
11:35 PM 21.2 °F 5.2 °F 19.4 °F 93% 29.53 in 10.0 mi NE 21.9 mph 33.4 mph N/A   Overcast
11:55 PM 19.4 °F 1.4 °F 17.6 °F 93% 29.52 in 10.0 mi NE 26.5 mph 35.7 mph N/A   Overcast